Wind_Speed
14 15 16 18 18 17 16 15 14 14 15 16 18 18 17 31 26 30 30 32 32 30 28 37 34 37 30 29 35 32 29 28 28 29 30 29 28 29
19 18 19 20 21 19 18 16 14 15 16 17 15 16 17 19 25 26 27 28 34 35 31 32 34 30 32 38 31 33 33 28 28 27 29 31 30 30
20 18 19 23 25 22 21 21 21 20 20 17 17 16 18 19 23 23 25 26 31 34 32 37 33 29 30 38 43 28 33 32 35 31 29 29 30 30
22 24 24 27 26 25 25 24 24 24 25 25 22 22 23 23 23 23 24 26 27 28 37 34 33 28 33 38 45 35 35 36 36 32 33 31 30 30
25 26 27 29 28 25 23 23 24 24 23 25 28 28 29 29 29 27 25 23 23 29 28 28 35 34 33 33 39 41 41 36 33 33 35 34 33 31
27 29 29 27 25 25 25 23 23 25 25 25 26 29 30 31 33 33 32 30 30 29 29 32 33 37 35 32 35 36 43 38 36 36 36 37 36 34
29 26 26 25 26 26 28 29 27 26 25 25 27 30 33 34 31 33 35 38 35 35 34 32 29 32 34 34 28 35 41 38 39 37 38 39 37 36
29 28 27 29 30 31 30 30 31 31 32 30 30 29 32 37 38 37 36 38 36 40 38 37 36 34 34 37 38 36 40 35 39 39 36 36 38 38
31 30 29 30 32 34 36 36 36 35 33 34 33 35 34 38 38 41 41 39 36 40 43 38 42 39 38 35 38 35 38 38 42 39 40 40 42 41
34 33 32 32 34 35 36 38 39 39 38 36 34 35 38 39 41 42 44 43 40 38 44 38 45 42 43 39 40 43 40 41 42 46 45 46 40 46
38 38 39 38 37 36 35 36 39 41 41 40 40 39 38 39 41 42 44 44 44 43 45 40 40 44 46 40 40 43 47 50 48 50 45 47 44 43
40 42 42 41 40 39 39 39 40 43 45 48 50 48 48 47 46 46 43 44 44 46 48 47 40 43 44 43 46 45 47 45 45 42 48 48 50 46
43 43 44 44 44 45 47 49 50 50 50 50 51 53 55 54 53 51 50 48 46 45 50 53 48 44 43 45 48 48 47 47 46 43 44 45 48 45
44 45 46 46 48 51 52 55 57 58 59 59 61 61 59 56 56 56 54 54 52 49 52 55 54 51 46 45 46 50 49 47 46 47 44 46 48 51
47 47 48 51 54 56 58 59 61 62 63 64 63 61 61 60 58 54 54 54 54 55 55 58 58 57 54 47 45 47 51 49 46 45 46 42 48 50
48 50 52 54 56 58 59 61 64 64 64 62 61 62 62 60 58 58 55 53 52 53 58 60 61 60 58 52 48 46 47 48 47 46 46 46 42 44
51 52 52 52 52 54 57 58 59 62 63 63 65 67 68 67 64 62 60 56 53 52 54 60 63 63 60 57 51 46 48 48 48 47 47 47 49 46
51 49 48 48 50 53 56 56 59 63 66 67 63 56 50 51 55 60 58 53 53 54 52 53 58 64 62 59 54 53 47 48 49 49 47 46 48 44
45 45 46 49 51 53 58 59 60 58 59 40 42 39 41 32 31 34 41 45 49 50 51 52 54 56 62 60 57 54 51 48 49 48 47 46 45 48
42 44 47 49 51 54 54 56 56 45 42 37 39 33 27 27 24 23 25 31 37 39 42 50 54 55 55 61 58 55 53 51 46 46 46 46 45 47
40 42 44 47 49 48 51 48 47 37 34 31 24 26 26 27 26 23 24 28 34 38 41 43 54 55 55 55 59 55 56 52 50 48 46 46 45 44
39 42 45 45 45 47 47 47 40 31 28 26 24 24 23 24 22 21 23 25 27 30 34 35 43 51 53 52 52 54 53 54 51 49 47 46 45 43
38 41 41 43 44 46 45 40 36 27 25 22 22 24 26 27 26 27 26 26 28 29 30 31 34 42 49 49 48 51 52 51 53 49 47 46 45 44
Wind_Direction
311 315 319 322 327 324 324 327 329 324 313 300 316 310 248 255 266 274 263 261 262 263 261 252 245 254 249 247 246 247 242 242 250 251 245 240 242 245
304 304 309 315 317 315 312 308 309 307 306 311 299 294 278 277 275 283 279 272 258 259 263 266 251 247 256 249 238 243 237 242 243 248 254 249 243 244
298 300 310 313 306 300 297 298 298 295 293 291 291 290 286 282 277 279 265 271 261 259 264 263 263 254 250 248 249 257 245 250 246 244 248 250 249 246
296 299 300 303 299 295 296 294 291 289 288 288 287 282 279 275 277 277 276 273 260 266 261 253 260 262 248 259 248 242 242 243 241 240 243 246 247 247
291 293 295 297 297 296 294 295 296 297 289 285 286 281 278 277 278 277 277 275 267 269 258 259 257 255 254 264 245 246 236 240 244 242 243 245 247 246
287 289 291 293 294 295 295 294 293 294 298 297 294 291 287 282 275 274 273 269 268 266 267 267 258 256 258 256 250 239 236 239 244 244 243 243 244 245
293 293 293 292 292 294 296 296 295 292 288 285 285 287 286 284 280 275 271 269 265 266 268 266 265 263 255 249 247 239 235 240 243 241 246 242 243 245
294 295 295 297 296 294 293 292 293 293 293 294 293 285 278 277 278 276 272 265 265 263 259 265 265 260 261 249 241 240 233 248 244 243 239 240 241 242
292 294 298 299 299 299 298 296 294 291 287 287 285 282 279 278 276 275 274 273 271 267 267 259 263 267 264 250 241 242 248 245 242 243 244 244 244 242
298 297 297 297 297 293 293 293 292 292 294 291 285 278 278 275 276 273 274 273 272 270 269 263 259 261 263 256 247 240 243 243 244 241 244 248 246 242
297 296 297 297 293 289 286 286 289 292 293 290 288 285 279 276 274 272 269 270 272 272 270 266 259 256 257 256 255 247 249 248 245 244 240 239 245 245
300 302 300 299 296 295 294 293 292 291 290 292 291 286 284 281 278 277 272 269 266 267 271 269 261 257 254 252 252 252 253 256 255 259 244 237 246 247
300 300 301 301 298 297 297 299 298 296 293 290 289 287 286 282 278 273 271 267 264 261 264 267 266 262 256 250 250 249 252 256 258 259 257 243 245 241
300 299 299 300 301 302 302 302 301 300 298 296 295 293 289 283 279 276 272 267 262 257 257 258 260 260 256 250 249 251 249 248 252 254 256 251 250 243
301 301 301 301 301 302 302 300 297 295 294 293 291 289 286 284 282 278 274 269 263 258 250 252 252 255 257 253 247 247 250 248 246 247 248 250 246 245
301 301 301 301 301 300 300 300 299 298 297 295 293 289 285 281 278 275 271 266 264 259 252 246 249 249 252 254 249 244 246 247 246 244 243 244 244 246
300 300 301 301 302 302 302 302 302 301 300 300 296 292 288 282 276 270 267 264 260 257 254 250 245 246 248 249 249 246 243 244 243 241 241 241 245 244
301 302 303 304 305 305 304 305 306 305 305 304 303 301 298 291 274 263 260 260 258 256 253 251 251 247 246 245 245 244 244 241 241 241 238 241 243 247
303 304 305 306 308 310 310 311 310 311 310 307 306 305 306 308 303 276 260 256 255 257 254 251 249 249 248 245 243 242 243 244 240 240 239 238 238 242
305 306 308 311 313 312 314 314 313 315 310 310 309 305 308 315 308 296 278 269 266 264 259 252 248 245 246 244 245 243 240 240 240 239 239 238 238 238
307 311 313 314 315 316 320 319 316 315 314 315 315 317 313 316 307 298 291 285 278 273 267 258 248 244 243 244 239 241 242 238 238 236 236 237 238 237
313 316 318 319 320 323 324 319 317 317 317 315 312 315 324 326 332 308 303 308 303 289 277 263 252 243 238 240 240 236 239 241 238 236 235 236 238 239
315 320 321 323 326 324 324 321 316 314 317 321 323 326 328 326 324 319 315 307 309 303 286 274 260 246 238 238 238 235 234 235 237 235 234 234 235 237
Height
5862 5860 5858 5855 5853 5851 5849 5846 5844 5842 5839 5837 5834 5833 5834 5836 5836 5838 5838 5840 5841 5841 5841 5841 5842 5843 5848 5846 5840 5853 5852 5852 5856 5859 5859 5860 5863 5866
5860 5858 5855 5853 5850 5848 5845 5843 5841 5839 5836 5835 5833 5833 5831 5832 5831 5832 5831 5831 5832 5833 5834 5835 5836 5838 5839 5839 5841 5840 5846 5846 5847 5852 5854 5855 5857 5859
5856 5854 5853 5849 5845 5842 5841 5838 5837 5835 5832 5831 5831 5829 5827 5827 5828 5827 5825 5823 5824 5824 5825 5826 5828 5830 5830 5830 5831 5833 5828 5836 5840 5843 5846 5848 5850 5851
5851 5849 5847 5844 5841 5837 5833 5832 5831 5830 5828 5825 5824 5824 5823 5823 5822 5820 5818 5817 5816 5816 5816 5818 5820 5820 5821 5822 5822 5823 5827 5831 5834 5835 5838 5840 5842 5843
5845 5843 5840 5837 5834 5831 5829 5825 5823 5822 5821 5819 5817 5817 5817 5816 5815 5814 5812 5811 5811 5810 5810 5810 5811 5811 5812 5812 5812 5814 5817 5822 5825 5827 5830 5832 5835 5836
5838 5835 5832 5830 5827 5823 5822 5820 5817 5815 5813 5812 5811 5809 5807 5807 5806 5805 5804 5805 5803 5803 5802 5801 5801 5802 5801 5803 5802 5805 5809 5812 5814 5818 5821 5823 5826 5828
5830 5827 5824 5822 5820 5817 5814 5811 5810 5807 5806 5804 5802 5800 5797 5796 5795 5794 5794 5791 5794 5795 5794 5792 5793 5794 5792 5792 5793 5795 5798 5803 5806 5808 5811 5814 5817 5820
5822 5819 5817 5813 5811 5809 5806 5804 5802 5799 5796 5797 5794 5792 5788 5785 5783 5782 5783 5781 5782 5778 5782 5781 5782 5784 5784 5785 5786 5787 5790 5792 5795 5798 5801 5805 5807 5810
5816 5812 5809 5806 5804 5800 5796 5793 5790 5789 5789 5787 5784 5779 5778 5774 5772 5770 5769 5771 5770 5766 5767 5772 5770 5772 5773 5774 5777 5778 5780 5782 5785 5787 5791 5794 5796 5799
5807 5804 5801 5798 5796 5793 5789 5784 5780 5777 5774 5774 5774 5771 5767 5764 5761 5759 5759 5757 5759 5757 5752 5760 5757 5763 5762 5765 5766 5767 5768 5770 5773 5776 5778 5782 5784 5787
5798 5794 5791 5788 5785 5783 5780 5777 5772 5767 5763 5761 5760 5759 5758 5754 5751 5750 5748 5746 5747 5745 5742 5745 5745 5746 5750 5755 5755 5757 5757 5759 5760 5761 5764 5768 5772 5774
5787 5782 5778 5775 5772 5769 5767 5764 5761 5757 5752 5746 5743 5743 5741 5740 5737 5736 5736 5734 5734 5735 5730 5729 5732 5732 5735 5739 5741 5742 5744 5746 5747 5747 5751 5754 5758 5761
5777 5773 5768 5764 5761 5757 5752 5749 5744 5741 5738 5735 5731 5725 5721 5720 5719 5719 5719 5719 5719 5720 5718 5713 5717 5719 5722 5723 5724 5727 5731 5732 5734 5736 5740 5739 5745 5748
5767 5762 5757 5751 5747 5743 5738 5733 5728 5723 5718 5713 5708 5704 5701 5699 5697 5697 5697 5698 5700 5704 5700 5698 5702 5703 5704 5709 5711 5711 5715 5719 5722 5725 5727 5730 5730 5734
5754 5748 5742 5737 5732 5726 5721 5715 5710 5706 5701 5695 5691 5687 5682 5678 5675 5673 5672 5674 5678 5679 5682 5681 5685 5687 5688 5692 5697 5698 5698 5702 5707 5711 5714 5716 5718 5722
5741 5735 5729 5723 5717 5710 5704 5697 5690 5685 5679 5675 5669 5664 5661 5658 5655 5652 5652 5652 5655 5657 5658 5661 5665 5669 5672 5675 5679 5684 5685 5688 5692 5696 5699 5703 5707 5709
5729 5724 5718 5711 5703 5696 5688 5681 5674 5666 5660 5654 5646 5639 5633 5631 5629 5628 5628 5629 5633 5636 5638 5639 5645 5648 5652 5657 5662 5667 5670 5673 5677 5680 5685 5690 5692 5696
5716 5710 5704 5698 5691 5683 5676 5668 5660 5649 5640 5632 5621 5613 5606 5599 5596 5597 5603 5607 5612 5614 5618 5620 5623 5629 5634 5639 5645 5651 5654 5658 5661 5666 5671 5676 5681 5683
5704 5698 5692 5686 5679 5671 5661 5650 5643 5633 5623 5616 5608 5601 5595 5586 5582 5580 5584 5590 5593 5595 5599 5601 5605 5608 5615 5621 5627 5633 5639 5644 5648 5652 5657 5662 5668 5671
5693 5688 5682 5675 5666 5658 5647 5636 5627 5620 5612 5605 5598 5592 5587 5582 5578 5575 5575 5577 5578 5579 5581 5583 5586 5591 5596 5603 5611 5618 5622 5629 5633 5638 5644 5649 5654 5658
5684 5678 5672 5665 5656 5647 5636 5626 5617 5611 5604 5598 5592 5587 5582 5577 5573 5570 5569 5568 5567 5566 5565 5565 5567 5573 5580 5585 5594 5602 5605 5612 5618 5624 5630 5635 5641 5646
5674 5669 5661 5653 5645 5636 5627 5618 5610 5603 5598 5592 5588 5583 5578 5574 5569 5565 5563 5560 5557 5554 5551 5550 5550 5554 5562 5569 5577 5584 5591 5596 5603 5610 5617 5623 5629 5634
5665 5658 5651 5644 5635 5627 5620 5611 5603 5597 5593 5587 5583 5578 5573 5569 5564 5560 5556 5551 5547 5543 5540 5538 5538 5541 5547 5554 5561 5568 5576 5583 5588 5596 5604 5610 5616 5621